GFSMA_sfc_temp_138.txt.gz
Temp
73 79 82 82 81 83 82 81 80 81 82 83 84 84 84 85 84 82 79 74 75 75 76 76 75 75 74 74 74 74 73 73 73 73 73 73 73 72 72 72 72 72 73
73 78 79 80 80 80 79 78 78 78 79 81 81 82 82 82 83 81 80 77 74 75 75 75 75 75 74 74 73 73 73 72 72 72 72 72 72 72 71 71 71 71 72
73 77 79 76 78 82 81 81 80 80 79 80 79 80 80 81 81 81 80 79 77 72 74 74 74 74 74 74 73 73 72 72 72 72 71 71 71 71 71 71 71 71 71
74 76 78 75 80 80 80 78 78 77 77 78 78 78 78 79 80 79 79 79 79 78 73 73 74 74 74 73 73 72 72 72 71 71 71 71 70 70 70 70 70 70 70
73 74 71 76 77 78 78 77 77 76 73 76 76 77 78 78 78 79 78 77 76 78 77 71 72 72 73 73 73 72 72 71 71 71 70 70 70 70 70 69 69 69 69
71 72 70 75 75 76 74 76 75 77 75 75 75 75 76 76 77 78 78 78 75 75 76 76 76 74 72 72 73 72 72 71 71 70 70 70 70 70 69 69 69 69 68
68 71 71 75 75 74 74 75 74 73 72 76 72 71 73 76 76 75 77 77 74 76 76 76 78 78 74 70 70 71 72 71 70 70 70 70 69 69 69 68 68 68 68
67 69 72 74 73 74 73 73 72 70 72 74 71 71 65 69 74 75 76 76 76 76 76 77 78 76 76 75 70 67 68 70 70 69 69 69 69 68 68 68 68 68 67
63 71 71 69 70 73 72 72 73 72 69 73 77 74 66 66 69 73 74 75 74 73 75 75 74 75 76 76 70 68 66 67 68 68 68 68 68 68 68 67 67 67 67
62 67 72 74 71 74 74 73 74 73 72 69 73 75 77 77 68 64 71 72 71 72 70 70 73 74 75 74 66 63 64 65 66 66 67 67 67 67 67 66 66 66 66
59 58 66 71 73 76 76 75 74 75 75 73 72 72 72 73 76 71 66 67 69 69 63 66 72 71 73 72 72 67 63 64 64 64 64 65 66 66 66 66 65 65 65
58 55 58 60 65 68 74 73 75 76 76 76 75 74 72 70 71 70 69 68 67 59 61 62 62 59 61 62 64 61 62 63 64 64 63 64 64 64 64 64 64 64 64
57 57 56 57 60 68 65 72 74 74 75 75 74 73 73 70 75 74 69 64 60 59 56 58 59 58 59 58 61 59 61 62 63 63 63 63 63 62 63 63 63 63 63
55 56 55 56 58 63 66 70 70 72 73 73 72 73 72 71 73 72 68 66 62 62 55 53 55 56 57 58 59 61 63 61 61 61 62 61 61 61 62 62 62 62 62
54 55 54 54 55 57 59 65 68 69 70 72 71 69 66 60 63 69 65 63 61 57 54 50 51 56 57 60 60 62 62 58 58 58 59 59 60 60 60 60 60 60 60
54 54 54 53 54 55 57 57 58 61 62 62 62 63 59 57 56 57 58 58 57 55 50 51 50 53 56 57 57 61 59 58 56 56 57 57 57 58 58 58 58 58 58
54 54 54 53 53 53 54 55 55 56 55 55 55 56 55 56 54 55 54 54 52 53 50 47 49 54 57 57 59 59 60 61 61 56 56 56 56 56 56 56 56 57 57
57 55 56 54 54 54 55 55 55 55 55 54 54 53 52 54 51 51 51 49 49 51 49 47 48 50 53 55 57 57 57 59 58 57 55 55 54 54 54 55 55 54 54
57 58 58 58 58 58 57 57 57 57 56 56 55 55 53 52 50 49 49 50 48 49 51 50 49 54 54 55 53 54 54 55 57 56 55 55 54 53 53 53 53 53 52
58 57 55 55 54 55 54 55 54 53 52 53 52 52 52 51 50 50 50 50 50 49 51 51 50 50 51 52 52 50 50 54 53 56 55 53 53 53 54 53 52 52 51
53 53 52 52 52 51 51 50 51 51 50 50 52 53 53 54 54 53 52 51 51 50 50 50 49 50 51 51 49 50 49 51 54 55 53 54 55 55 55 54 54 52 51
56 56 55 55 54 53 52 52 52 53 54 53 52 54 56 55 55 53 53 53 54 52 51 51 50 48 50 51 50 48 47 48 47 58 52 51 54 52 53 53 51 50 50
58 57 56 56 55 54 52 52 52 54 54 54 54 53 53 53 55 56 53 52 52 51 50 53 50 50 48 47 46 45 49 48 48 51 50 47 52 51 53 55 52 50 50
56 56 55 56 54 53 51 50 51 53 53 53 53 53 53 53 53 54 54 53 53 53 52 53 50 48 48 49 47 48 48 48 50 52 51 44 50 49 52 53 50 48 49
56 56 56 55 54 52 49 49 52 53 52 51 52 52 53 53 48 49 51 50 51 51 50 48 47 46 45 45 46 47 47 44 45 46 50 42 47 45 47 49 52 50 49
54 55 54 55 52 52 48 48 52 53 51 51 51 50 46 50 49 49 51 49 46 47 47 48 48 48 47 47 43 48 47 43 41 42 45 40 42 41 37 49 49 50 50

GFSMA_sfc_temp_141.txt.gz
Temp
65 69 71 74 80 80 79 83 82 82 83 85 85 85 85 84 81 78 74 73 75 75 76 76 75 75 74 74 74 73 73 73 73 73 73 73 72 72 72 72 72 72 72
67 70 69 71 75 82 81 81 81 81 82 84 82 83 83 82 80 78 76 74 74 75 75 75 75 75 74 74 73 73 73 72 72 72 72 72 72 71 71 71 71 71 71
70 72 74 72 77 81 80 79 79 78 77 79 78 80 80 82 80 78 77 75 74 72 73 74 74 74 74 74 73 72 72 72 72 72 71 71 71 71 71 71 71 71 71
73 74 75 77 79 76 80 79 78 77 77 78 78 79 80 80 81 80 78 77 75 75 72 73 74 74 74 73 73 72 72 72 71 71 71 71 70 70 70 70 70 70 70
74 72 75 76 77 74 79 78 77 78 76 76 76 77 78 78 78 79 78 77 76 75 73 71 71 72 73 73 73 72 72 71 71 71 71 70 70 70 70 69 69 69 69
73 73 73 74 74 72 76 77 76 77 76 75 77 75 76 76 78 78 77 77 75 75 74 72 72 71 72 73 73 72 72 71 71 71 70 70 70 70 69 69 69 69 68
72 69 70 72 70 71 75 75 76 74 73 75 72 72 73 76 77 77 77 76 74 75 75 74 75 73 71 70 71 72 72 71 71 70 70 70 69 69 69 68 68 68 68
69 70 68 71 71 71 71 74 73 71 72 73 69 68 64 69 74 75 76 76 75 75 75 76 76 75 74 71 67 67 69 70 70 70 69 69 69 69 68 68 68 67 67
66 68 72 73 72 71 70 72 72 71 68 72 75 70 64 64 67 73 74 74 75 73 75 74 74 74 74 71 66 66 66 68 69 69 69 68 68 68 68 67 67 67 66
63 66 71 70 73 71 72 70 73 72 71 68 73 77 77 76 66 62 71 73 74 73 72 71 73 74 74 73 65 64 65 65 66 67 67 67 67 67 67 66 66 66 66
59 62 68 69 71 72 72 73 73 74 73 72 71 71 72 74 76 69 63 66 70 70 70 69 68 70 68 69 69 66 64 64 64 65 65 65 66 66 66 66 65 65 65
57 57 61 65 70 70 70 73 75 74 74 74 73 72 71 69 69 69 68 67 65 65 66 63 59 59 61 63 64 62 62 63 64 64 63 63 64 65 64 64 65 64 64
55 55 56 58 62 66 72 72 74 74 75 74 74 74 74 73 74 73 69 65 63 61 61 62 60 61 62 62 60 60 61 62 63 64 63 63 63 62 63 63 63 63 63
56 56 56 56 58 62 66 70 72 73 75 75 74 74 72 73 73 72 68 64 60 61 59 58 59 58 56 56 59 62 60 61 61 61 61 61 61 61 62 62 61 61 62
55 56 56 54 55 58 60 64 65 69 72 73 73 72 69 65 66 64 63 59 57 52 54 54 51 55 55 56 57 61 60 58 59 58 58 58 59 59 60 60 60 60 60
55 54 53 53 54 55 56 58 59 64 67 66 67 66 64 62 61 59 56 55 55 54 51 50 49 52 54 57 57 61 59 58 57 57 57 56 57 57 58 58 58 58 57
55 53 53 53 52 53 54 54 55 56 55 56 57 57 55 56 51 51 51 51 51 51 49 46 48 51 53 55 56 57 57 57 58 58 56 56 55 56 56 56 56 56 56
55 55 54 53 53 53 53 54 54 55 55 54 53 53 51 53 49 49 49 49 49 49 49 45 48 49 51 54 55 55 56 58 56 58 56 55 55 54 54 54 54 54 54
57 58 56 55 55 55 55 55 55 56 55 55 55 54 52 51 50 51 50 49 49 51 51 48 46 50 53 53 52 53 53 54 56 57 57 56 54 54 54 54 53 53 53
56 56 56 54 54 55 56 57 57 56 57 56 56 54 53 51 50 49 49 48 49 48 49 47 48 48 50 51 49 48 48 51 51 56 56 55 55 55 55 55 54 54 52
57 57 55 54 53 53 53 51 51 51 51 50 51 52 52 54 55 53 51 50 50 49 49 48 47 47 48 48 47 48 47 49 51 52 50 52 52 52 52 54 53 52 51
56 57 56 55 55 55 54 53 53 52 52 52 51 53 54 55 55 55 55 55 53 50 48 48 47 46 48 48 48 46 46 46 45 54 49 48 51 49 51 51 53 52 51
58 57 57 56 53 53 54 55 55 53 52 53 53 52 53 54 54 53 53 53 52 51 50 49 49 49 48 48 46 44 45 46 46 49 48 45 49 47 50 53 52 50 50
58 57 56 56 53 52 52 53 55 54 54 54 55 54 54 53 53 54 53 53 53 52 51 52 49 48 48 47 47 47 46 46 48 50 48 42 47 46 48 49 50 49 50
57 57 57 55 53 51 51 52 55 54 52 52 53 54 54 53 50 50 51 50 51 51 50 48 48 47 46 46 46 44 44 43 43 45 46 41 44 43 44 46 49 50 50
57 57 56 57 53 50 49 51 54 54 51 51 52 50 47 50 49 50 50 50 47 47 47 47 45 45 46 47 45 45 45 41 40 40 43 38 39 39 36 44 43 46 47

GFSMA_sfc_temp_147.txt.gz
Temp
62 64 64 64 65 66 66 65 66 67 73 75 72 69 68 64 64 67 73 74 75 75 76 76 75 75 74 74 74 74 73 73 73 73 73 72 72 72 72 72 72 72 72
64 64 64 64 65 67 67 68 68 68 67 75 71 69 68 66 63 63 71 70 74 75 75 75 75 75 74 74 73 73 73 72 72 72 72 72 72 71 71 71 71 71 71
64 64 63 63 64 66 69 68 67 66 69 73 69 68 67 65 63 62 63 63 66 72 74 74 74 74 74 74 73 72 72 72 72 72 71 71 71 71 70 70 70 70 70
64 64 65 63 66 65 65 70 67 65 67 68 68 68 67 67 64 63 64 63 62 64 70 73 74 74 73 73 73 72 72 72 71 71 71 71 70 70 70 70 70 70 70
64 64 66 65 67 65 62 69 64 66 65 66 67 66 67 66 65 67 62 63 63 62 62 71 72 72 73 73 73 72 72 71 71 71 70 70 70 70 69 69 69 69 69
65 64 65 66 66 64 64 66 66 64 63 65 69 65 67 64 63 64 61 65 62 62 61 62 61 66 72 73 72 72 72 71 71 70 70 70 70 69 69 69 68 68 68
66 65 65 65 65 62 68 68 64 64 62 64 60 58 58 60 61 63 63 60 60 61 60 60 59 60 64 71 72 72 72 72 71 70 70 69 69 69 68 68 68 68 67
67 66 66 65 65 69 68 67 66 62 59 61 58 55 54 56 59 60 60 63 59 60 61 61 59 58 58 58 62 69 70 71 71 70 70 69 69 68 68 67 67 67 67
65 66 67 65 66 71 69 68 66 66 59 58 64 55 51 50 54 57 57 59 59 57 57 59 59 59 57 56 61 63 67 69 69 69 69 68 68 68 67 67 66 66 66
65 67 68 66 67 70 68 68 67 65 63 62 58 63 58 57 52 51 54 55 56 58 56 56 56 57 56 55 60 62 66 66 67 68 68 67 67 67 66 66 66 65 65
62 63 66 65 63 64 69 70 66 67 65 61 58 58 56 56 55 52 50 51 53 52 52 52 52 52 53 54 55 59 65 65 65 66 66 66 66 66 65 65 65 65 64
57 59 62 63 64 62 65 67 67 67 66 63 61 60 57 55 54 54 49 48 49 49 50 49 50 50 51 52 60 63 64 64 64 64 64 64 64 65 64 64 64 64 63
57 56 59 61 61 63 65 67 65 66 66 63 62 61 59 58 58 56 52 48 47 47 48 48 48 50 55 56 56 60 62 62 63 63 64 63 62 62 63 63 63 63 62
56 56 55 57 58 59 62 65 63 63 64 63 62 59 57 56 57 56 54 52 47 46 47 50 51 50 52 55 59 60 59 61 61 61 60 60 60 60 60 61 61 61 61
55 55 55 55 56 57 60 62 61 60 63 61 59 57 55 52 52 53 53 54 52 47 47 47 47 48 50 54 57 55 54 60 59 59 58 58 58 58 59 59 59 59 59
56 55 54 54 55 55 57 58 57 58 59 58 58 58 56 55 54 52 52 53 53 50 46 48 47 50 53 55 56 54 55 58 58 58 57 57 56 57 57 57 57 57 57
54 54 54 53 53 54 55 55 55 56 55 54 54 54 53 53 52 51 52 52 51 51 49 46 47 49 50 51 52 52 53 51 48 57 58 57 56 56 55 55 54 55 55
53 53 53 53 53 53 53 54 54 55 54 53 52 52 51 53 50 50 50 49 49 49 48 46 45 46 46 47 47 50 52 55 47 55 57 57 56 55 54 54 55 55 54
53 53 53 53 53 53 53 53 53 53 52 52 52 51 50 50 48 48 48 47 47 49 47 45 44 46 47 48 47 48 48 45 50 56 57 57 56 56 56 55 55 54 54
53 53 53 53 53 53 53 53 52 52 51 51 52 51 51 51 49 48 48 47 48 45 45 45 45 45 45 45 44 41 40 41 42 50 52 54 54 54 55 55 53 52 51
52 52 51 51 51 51 51 50 50 48 48 48 49 50 50 52 54 52 48 46 46 45 45 44 43 43 42 39 38 37 37 37 39 39 40 41 41 40 43 47 50 52 51
50 50 50 51 51 53 55 54 51 49 50 49 48 50 52 55 55 56 55 54 49 44 43 40 38 37 36 36 36 35 35 34 33 39 37 37 38 37 39 42 52 51 50
48 47 48 49 49 52 56 55 53 48 46 46 46 47 49 51 49 48 53 54 53 53 49 40 36 36 34 35 35 35 34 33 33 37 36 34 36 35 38 43 48 50 50
42 42 42 43 45 51 56 55 52 44 43 43 43 44 43 43 45 46 44 42 41 41 43 44 38 36 36 37 37 37 35 34 35 36 35 31 33 33 35 36 48 48 47
42 40 41 40 41 44 55 54 47 42 42 40 42 42 42 42 52 51 42 40 39 41 50 51 49 49 49 47 44 36 33 33 32 32 35 32 31 31 32 33 38 46 46
43 43 40 39 47 41 55 53 46 42 38 39 39 42 49 45 50 50 40 38 36 37 40 43 43 45 47 41 47 36 34 32 34 30 36 32 32 37 29 33 34 36 36

GFSMA_sfc_temp_150.txt.gz
Temp
63 64 64 64 63 65 64 65 65 66 69 69 68 66 61 61 64 72 71 74 75 75 76 76 75 75 74 74 74 74 73 73 73 73 72 72 72 72 72 71 72 72 72
63 62 64 64 64 65 65 63 64 69 69 68 67 66 63 62 62 69 70 71 74 75 75 75 75 75 74 74 73 73 73 72 72 72 72 72 71 71 71 71 71 71 71
64 63 64 64 64 66 64 66 67 68 68 68 64 63 65 61 61 62 63 66 70 72 74 74 75 74 74 74 73 73 72 72 72 71 71 71 71 71 70 70 70 70 70
63 63 63 64 65 64 63 63 66 69 67 65 64 64 64 62 60 61 62 62 61 64 70 73 74 74 74 73 73 72 72 72 71 71 71 70 70 70 70 70 70 69 69
64 63 64 63 63 62 62 61 65 68 66 65 64 62 63 61 61 64 59 60 61 61 62 71 72 72 73 73 73 72 72 71 71 71 70 70 70 69 69 69 69 69 69
63 63 64 65 63 62 61 61 64 65 66 65 66 62 59 59 59 59 58 62 60 61 61 62 62 66 72 73 72 72 72 71 71 70 70 69 69 69 69 68 68 68 68
63 63 63 65 63 62 61 61 64 65 62 66 59 56 56 56 57 58 59 58 59 59 59 59 59 59 64 71 72 72 72 71 71 70 70 69 69 68 68 68 67 67 67
63 63 63 65 63 62 61 61 64 61 62 64 61 55 52 57 56 57 57 60 58 58 59 59 58 58 58 58 63 70 70 71 70 70 69 69 68 68 67 67 67 67 66
64 64 64 64 64 63 61 61 64 66 62 56 65 56 51 51 52 54 54 56 56 56 56 57 57 57 56 56 61 64 67 69 70 69 69 68 68 67 67 67 66 66 66
64 65 65 65 65 66 65 61 68 67 66 62 58 61 58 57 52 49 53 54 54 55 53 55 55 56 54 54 59 62 66 67 68 68 68 68 67 67 66 66 66 65 65
62 65 66 65 65 68 70 70 68 67 68 64 61 57 57 56 55 53 48 49 51 50 49 50 51 52 53 53 53 58 65 65 65 66 66 66 66 66 65 65 65 65 64
58 61 64 64 64 63 67 69 68 67 67 64 59 59 57 56 55 54 50 48 48 47 47 47 48 49 50 51 58 62 64 64 64 64 64 64 64 64 64 64 64 64 64
57 58 61 62 62 61 61 65 66 66 65 63 60 60 59 59 58 56 51 46 46 47 48 46 46 48 53 50 54 60 62 62 62 63 64 62 62 62 62 62 62 62 62
57 57 59 62 61 62 61 61 63 63 64 63 61 60 58 59 58 56 52 49 46 46 45 46 46 47 49 50 56 61 58 61 61 61 60 60 59 60 60 60 60 60 60
55 56 58 57 59 60 61 62 62 61 62 60 59 58 56 55 56 56 53 56 52 44 45 46 47 47 49 50 55 55 55 60 60 59 58 58 58 58 58 58 58 58 58
55 55 55 55 56 56 56 58 57 58 58 56 57 56 54 53 52 50 51 52 51 49 47 49 49 50 52 55 56 54 54 57 59 58 57 57 56 57 56 56 56 56 56
55 54 55 54 54 54 54 55 55 56 55 54 54 54 52 53 52 53 53 52 51 52 49 47 47 49 50 51 52 52 52 48 50 58 58 58 56 56 55 55 55 55 55
54 54 54 54 54 54 54 55 54 54 54 53 53 53 52 53 50 50 50 49 50 50 50 47 45 46 48 49 48 49 51 53 50 55 57 57 57 55 54 55 55 55 55
53 54 54 53 53 53 53 53 54 54 53 53 52 52 51 51 49 48 48 48 47 49 47 46 44 46 47 48 47 48 48 47 50 55 56 56 56 56 56 56 54 53 52
53 53 53 53 53 53 53 53 52 51 51 50 51 50 50 50 49 47 48 47 48 46 46 45 44 44 45 45 43 39 39 40 40 47 50 52 53 53 54 54 53 52 51
52 52 51 51 51 52 52 50 50 50 49 48 48 49 49 51 53 52 48 47 47 45 44 42 42 42 39 37 37 36 36 36 38 38 39 40 39 39 41 45 49 51 51
51 51 51 51 51 53 54 52 50 48 48 48 48 50 52 55 55 56 55 53 49 45 40 39 36 36 34 34 35 34 34 33 33 37 36 36 37 35 37 39 49 51 50
46 48 50 51 50 50 56 55 53 48 47 47 47 48 49 51 49 48 54 54 53 53 48 39 35 34 34 34 35 33 33 33 32 35 34 32 33 33 35 41 47 49 48
41 42 47 47 46 51 55 54 51 44 43 42 43 43 42 42 44 44 41 40 40 40 41 43 37 36 36 36 36 36 34 33 33 35 33 30 31 31 33 34 47 47 47
39 39 40 42 43 45 54 52 46 41 40 39 41 42 42 42 51 50 41 39 38 40 49 49 49 49 49 48 41 35 32 32 30 31 33 31 31 31 31 32 38 45 46
40 41 40 40 48 43 53 52 44 41 37 38 38 41 49 44 51 49 38 37 36 37 39 41 43 46 47 42 47 36 34 31 31 30 38 32 31 34 29 31 33 35 35

GFSMA_sfc_temp_156.txt.gz
Temp
62 63 64 64 64 64 66 64 66 65 61 61 61 61 61 63 68 70 70 74 75 76 75 75 75 75 75 75 74 74 73 73 73 73 72 72 72 72 71 71 71 71 72
62 62 63 64 64 65 65 65 64 66 62 60 60 60 60 62 67 69 69 70 73 74 75 75 75 75 75 74 74 73 73 72 72 72 72 72 71 71 71 71 71 71 71
63 63 63 63 64 64 65 64 66 66 64 62 57 58 60 60 65 67 67 67 69 72 73 74 75 75 74 74 73 73 72 72 72 71 71 71 71 70 70 70 70 70 70
62 61 62 62 64 64 63 62 62 64 63 62 56 57 57 59 64 65 65 65 65 66 71 73 74 74 74 74 73 72 72 72 71 71 71 70 70 70 70 69 69 70 70
62 61 62 62 64 63 62 61 60 61 60 61 59 56 56 56 60 65 63 62 62 63 63 71 72 73 74 73 73 72 72 71 71 71 70 70 69 69 69 69 69 69 69
63 62 61 62 63 61 61 60 60 60 60 60 62 56 54 55 56 59 57 60 60 60 61 61 61 66 72 73 73 72 72 71 71 70 70 70 69 69 69 68 68 68 68
63 62 62 62 61 61 61 61 60 59 58 59 59 56 56 54 54 55 56 57 58 58 59 59 59 60 64 71 72 72 72 71 71 70 70 69 69 68 68 68 67 67 67
62 62 62 62 62 60 61 60 59 58 58 59 57 55 53 56 56 56 55 57 56 57 58 59 58 58 58 59 64 69 70 71 71 70 69 69 69 68 68 67 67 67 67
62 63 62 63 62 61 61 60 60 60 57 58 59 56 51 50 52 53 54 54 54 54 55 56 57 57 57 57 59 62 67 69 70 69 69 69 68 68 67 67 66 66 66
61 62 62 63 62 62 61 60 61 60 59 56 60 61 58 56 51 49 52 53 53 54 52 53 54 55 55 55 60 62 66 66 67 68 68 68 67 67 66 66 66 66 65
62 62 62 63 63 62 63 61 60 59 59 58 59 55 55 53 53 51 48 50 51 50 50 50 51 52 53 53 54 58 64 65 65 66 66 66 66 66 66 65 65 65 65
60 62 63 63 64 62 62 61 60 59 59 59 59 58 58 56 53 51 47 46 49 49 49 49 50 50 51 52 56 61 64 64 64 64 64 64 64 64 64 64 64 64 63
57 58 61 62 62 62 63 62 60 59 59 58 57 56 57 59 58 54 51 47 48 48 49 48 49 48 52 51 53 59 62 62 62 63 64 63 62 62 62 62 62 62 61
58 58 59 62 63 63 62 62 61 59 58 57 57 59 59 59 58 57 54 50 46 45 45 48 46 47 48 50 53 61 57 62 62 62 61 60 60 60 60 60 59 59 59
55 58 57 59 60 60 61 61 60 59 58 56 57 56 55 56 57 57 56 56 52 45 46 45 46 46 47 49 54 54 55 61 60 60 59 59 59 58 58 58 57 57 57
56 56 57 59 59 59 60 60 59 58 57 56 55 54 53 53 53 53 54 53 52 52 49 48 47 47 48 54 56 54 55 58 59 59 58 57 57 57 57 56 55 56 56
55 55 56 58 58 58 59 58 57 56 55 53 53 53 51 52 51 51 52 53 52 52 48 46 48 49 50 51 51 52 52 51 53 58 58 58 57 56 55 55 55 55 55
54 54 55 56 57 57 57 56 55 55 54 53 52 52 51 53 51 51 51 50 49 50 50 46 45 45 46 47 48 49 52 53 50 55 57 58 57 55 54 55 55 55 53
54 54 55 55 55 55 54 54 54 53 52 52 52 51 51 51 49 49 49 48 48 48 47 46 42 44 45 47 46 47 47 46 50 52 54 55 56 55 55 54 53 53 52
53 53 53 53 54 53 53 53 52 52 52 52 52 52 51 51 49 48 48 46 46 45 45 44 43 43 44 44 43 42 41 39 39 45 47 48 50 52 53 52 52 52 51
52 52 52 52 53 53 52 51 52 51 51 50 50 50 49 51 52 50 47 45 44 44 44 44 42 42 41 41 40 39 39 38 37 36 37 37 38 38 40 43 46 51 50
50 51 51 52 52 53 55 54 52 49 48 48 47 49 51 52 52 52 52 53 49 46 43 42 39 39 35 34 34 34 34 34 34 35 35 36 36 36 37 39 46 50 49
50 50 50 51 51 53 55 53 51 48 47 47 47 48 50 51 48 49 54 53 53 52 48 39 35 34 33 34 33 33 32 32 32 34 33 32 33 34 36 39 48 48 48
47 48 49 50 51 53 54 53 51 46 44 43 43 42 43 42 43 42 40 39 38 39 40 41 36 35 35 35 35 35 33 32 32 33 33 32 32 33 34 35 44 47 47
45 44 45 46 46 46 53 51 45 42 40 39 40 41 42 42 51 49 39 37 37 39 49 49 47 49 49 46 40 34 32 32 31 32 33 33 32 32 32 33 37 45 46
39 42 41 42 49 43 52 50 43 41 37 38 38 41 50 45 50 47 37 36 35 35 37 38 37 43 45 45 46 39 33 32 32 31 35 33 32 32 31 34 34 36 36

GFSMA_sfc_temp_159.txt.gz
Temp
71 70 70 70 71 73 74 70 72 74 76 76 77 78 78 79 79 76 75 74 75 75 75 76 75 75 75 75 75 74 74 73 73 73 72 72 72 72 72 72 72 72 72
70 70 69 69 70 70 70 66 69 69 74 76 75 77 77 78 77 73 76 74 73 74 75 75 75 75 75 75 74 73 73 73 73 72 72 72 71 71 71 71 71 71 72
71 71 70 68 70 70 70 69 69 64 66 73 74 75 76 78 73 72 72 72 73 72 74 74 75 75 75 74 74 73 73 72 72 72 71 71 71 71 71 70 71 71 71
69 69 69 68 67 67 67 67 63 61 61 64 67 70 74 76 70 70 68 69 70 72 72 73 74 74 75 74 73 73 72 72 72 71 71 70 70 70 70 70 70 70 70
66 65 68 68 68 65 65 65 62 62 60 60 61 66 71 73 69 68 67 67 67 69 73 71 72 72 73 74 73 73 72 72 71 71 71 70 70 70 69 69 69 69 70
67 64 65 67 66 64 63 64 61 60 59 59 60 61 67 69 65 65 66 70 71 72 73 72 72 73 72 73 73 73 72 72 71 71 70 70 70 69 69 69 68 68 69
66 65 63 64 65 64 64 63 61 59 58 58 57 59 62 62 63 63 67 71 69 71 71 72 73 73 74 71 72 73 72 72 71 70 70 70 69 69 69 68 68 68 67
66 65 63 63 62 63 62 63 62 59 59 59 57 57 55 58 61 65 67 68 69 70 70 71 72 72 71 72 71 69 70 71 71 70 70 69 69 68 68 68 67 67 67
65 65 65 64 62 63 61 62 62 61 57 59 59 58 55 56 58 61 63 66 67 68 68 69 70 69 70 70 69 68 67 69 70 70 69 69 68 68 67 67 67 66 66
64 65 65 64 63 64 62 62 63 62 61 57 58 59 62 63 60 55 61 63 64 66 67 67 67 67 68 69 65 64 66 66 68 68 68 68 68 67 67 66 66 66 66
64 65 65 64 65 64 65 62 61 61 60 59 58 54 60 60 63 60 56 58 61 63 64 65 65 66 67 67 67 64 65 65 65 66 66 66 66 66 66 65 65 65 64
64 65 65 65 67 67 66 64 63 62 60 59 59 58 61 61 59 59 57 58 59 58 61 61 62 63 64 65 63 61 63 64 64 64 65 65 65 65 64 64 64 63 63
60 61 63 63 66 67 67 65 63 61 60 59 59 58 60 60 63 60 62 57 57 59 60 61 62 62 63 64 65 62 63 63 63 63 64 63 62 62 62 62 62 62 62
62 63 61 62 63 64 64 63 61 60 60 59 58 56 57 57 61 65 60 56 54 57 58 60 59 59 60 62 63 61 65 62 63 63 62 61 60 60 60 60 60 59 59
60 62 62 61 61 63 63 62 60 59 59 59 58 55 54 54 60 61 60 61 59 55 56 59 59 58 60 61 62 64 64 61 61 61 60 60 59 59 58 58 58 57 57
60 60 60 60 64 62 62 61 60 59 57 55 54 54 53 53 53 53 55 58 60 61 59 59 58 57 58 59 60 61 60 59 60 59 58 58 58 57 57 56 56 56 56
57 57 59 60 60 59 61 60 59 58 56 54 54 54 52 53 52 53 54 57 58 58 54 51 55 53 53 55 53 53 53 53 54 56 58 58 57 56 56 55 55 56 56
55 55 56 58 59 58 59 58 56 57 55 54 53 53 51 52 51 53 53 55 53 52 50 47 46 45 46 49 49 50 52 53 51 56 57 58 57 56 55 55 55 56 54
54 54 55 56 56 56 56 56 56 55 54 54 53 52 51 52 51 51 51 50 49 50 49 48 44 44 45 46 46 47 48 50 53 53 53 55 56 56 55 55 54 53 52
54 53 54 55 55 55 55 55 54 53 52 52 52 52 52 52 51 50 50 48 48 47 46 45 43 43 44 45 47 45 44 48 46 49 50 50 52 52 53 53 53 52 51
53 54 53 53 53 53 53 52 53 52 51 51 51 51 51 53 53 52 48 46 46 45 44 44 44 44 44 46 47 46 45 46 48 49 51 50 51 51 50 49 49 50 51
52 53 53 53 53 54 55 54 52 50 50 49 50 51 52 53 53 54 53 52 50 47 46 48 45 45 43 45 46 47 47 46 46 47 48 48 48 48 50 51 47 50 49
51 51 52 53 53 54 55 54 52 50 49 49 48 48 49 50 51 52 55 54 54 53 51 51 47 46 45 45 46 45 45 45 45 46 45 45 47 47 49 50 48 48 48
49 49 50 52 52 53 54 53 51 48 47 47 48 49 50 51 52 50 50 49 49 49 49 49 48 47 47 47 46 45 44 44 45 46 45 43 46 47 48 49 44 47 47
49 49 51 51 52 52 53 52 50 50 50 50 51 52 52 52 51 49 48 47 47 48 50 49 49 48 47 46 46 46 43 44 42 44 44 44 46 44 46 47 48 45 46
47 49 50 52 52 52 51 51 50 50 48 48 51 51 51 51 50 48 48 47 45 46 48 48 49 49 50 49 46 47 46 43 42 42 45 43 44 44 42 47 48 48 48

GFSMA_sfc_temp_162.txt.gz
Temp
80 81 80 80 81 81 78 77 78 82 80 81 86 86 85 85 84 77 77 74 75 76 76 76 75 75 75 75 74 74 74 73 73 73 73 72 72 72 72 72 72 73 73
79 79 78 75 79 79 77 76 77 79 78 78 82 84 83 84 82 78 77 78 73 75 76 76 75 75 75 75 74 73 73 73 72 72 72 72 72 72 71 71 72 72 72
79 79 79 79 77 78 73 72 73 75 70 74 76 81 83 83 79 78 79 77 76 72 74 75 75 75 74 75 74 73 72 72 72 72 71 71 71 71 71 71 71 71 71
75 77 76 76 74 72 70 70 72 69 67 72 72 73 81 81 76 77 77 76 75 75 73 73 74 75 74 74 73 73 73 72 72 71 71 71 70 70 70 70 70 70 71
76 73 73 73 70 67 67 67 67 68 62 60 61 64 70 74 72 71 73 70 72 73 73 72 72 73 73 73 73 73 72 72 71 71 71 70 70 69 70 69 69 69 70
75 73 71 70 68 67 65 66 66 67 63 61 60 60 62 69 69 69 69 70 71 72 74 74 73 73 72 73 73 73 72 72 71 71 70 70 70 70 69 69 69 69 69
72 71 71 71 66 66 65 65 63 61 59 59 58 57 59 66 67 67 68 69 71 77 76 77 76 73 73 72 72 73 73 72 71 70 70 70 69 69 69 68 68 68 68
70 73 69 70 67 63 63 62 61 59 58 59 58 57 54 58 62 66 68 72 76 76 76 77 78 78 77 72 71 69 70 71 71 70 70 69 69 68 68 68 68 67 67
70 70 69 69 69 64 62 62 63 62 58 59 61 59 54 54 59 60 65 70 73 74 76 76 77 76 76 75 71 68 67 70 70 70 69 69 68 68 67 67 67 67 66
71 68 70 69 67 66 64 63 64 62 61 57 58 59 60 62 58 55 63 68 71 72 73 73 74 74 74 74 67 65 66 67 68 68 68 68 68 67 67 66 66 66 65
68 68 71 71 68 69 67 63 63 62 62 60 59 55 56 61 69 64 59 60 67 71 72 71 71 72 73 73 72 66 65 66 66 66 66 67 67 67 66 65 65 65 64
64 66 69 71 70 70 71 64 65 63 62 61 59 56 56 57 60 62 64 63 63 66 66 69 70 71 71 70 67 63 64 65 65 65 65 65 65 65 64 64 64 63 63
64 65 68 69 69 71 71 67 64 64 64 61 59 57 58 60 64 62 66 61 61 62 65 68 69 69 69 69 69 62 63 64 64 64 64 64 63 62 62 62 62 62 62
63 64 64 67 68 69 68 67 63 63 63 61 59 57 58 61 62 60 62 62 60 60 62 65 68 67 68 69 67 62 67 63 63 63 63 61 61 60 60 60 60 60 60
68 68 65 61 63 66 68 67 64 63 63 61 60 58 58 56 57 62 66 64 61 57 60 67 64 66 67 67 66 67 69 61 62 61 61 60 59 59 59 58 58 57 57
63 64 66 65 64 63 63 64 61 62 60 60 59 57 54 55 54 57 58 63 65 65 62 66 64 64 65 65 61 66 62 61 60 60 59 58 58 58 57 57 56 56 56
61 61 64 64 62 64 65 62 60 59 58 56 56 55 53 54 53 53 53 55 57 59 61 59 61 61 59 57 55 53 55 55 55 57 58 57 57 57 56 56 55 56 56
59 57 59 61 61 63 65 61 59 58 55 54 53 53 52 54 52 53 53 53 54 56 53 49 46 46 47 50 49 49 52 53 52 54 56 58 58 57 56 55 55 55 54
56 56 57 57 59 59 58 58 57 55 55 54 54 54 53 53 51 51 52 51 52 51 51 48 44 45 45 46 45 46 47 49 53 53 54 55 55 57 55 55 54 53 52
54 54 55 55 55 56 56 55 55 54 54 54 53 53 53 53 52 51 51 50 50 49 49 47 45 43 44 44 44 43 43 46 49 54 52 51 51 53 53 52 53 52 51
55 55 54 54 54 55 55 54 53 53 52 51 52 52 52 53 55 52 50 49 49 47 46 44 43 44 43 43 45 49 51 53 53 55 55 56 55 56 55 51 51 51 52
53 55 54 54 54 54 56 55 53 51 51 51 51 52 54 55 54 54 54 53 53 48 47 47 50 52 50 51 52 53 53 50 49 53 51 53 53 53 54 55 49 49 51
53 53 53 54 53 54 56 55 53 51 50 49 49 49 50 52 53 54 56 55 54 53 55 57 53 53 52 52 53 51 51 50 50 52 49 49 53 50 54 54 47 49 49
51 51 51 53 53 53 54 54 52 49 48 48 49 50 53 55 56 57 56 55 55 55 55 55 54 52 52 52 51 50 49 49 50 51 50 45 50 49 53 53 47 47 48
51 52 53 53 52 52 54 54 54 53 53 54 57 58 57 56 52 54 55 53 52 51 52 51 50 49 49 49 49 51 47 47 45 45 47 46 47 47 50 50 52 46 46
52 56 57 58 55 55 54 55 58 58 56 55 56 55 52 53 51 52 55 53 51 51 52 52 52 51 52 49 48 51 49 45 44 43 46 44 43 43 42 49 49 49 51

GFSMA_sfc_temp_165.txt.gz
Temp
78 79 78 81 79 79 77 75 77 77 80 83 83 85 86 85 81 78 76 74 75 76 76 76 75 76 75 75 74 74 74 73 73 73 73 73 72 72 72 73 73 73 73
79 79 78 78 79 78 74 75 76 74 81 82 80 80 84 84 79 76 76 76 73 74 76 76 75 76 75 75 74 73 73 73 73 72 72 72 72 72 72 71 72 72 72
82 82 78 78 79 78 76 75 76 74 80 79 74 71 77 80 78 76 75 76 72 72 74 75 75 75 75 74 73 73 72 72 72 72 71 71 71 71 71 71 71 71 71
79 81 81 78 77 76 73 72 73 72 73 73 71 68 73 78 77 77 73 75 73 75 72 73 74 74 74 74 73 73 72 72 71 71 71 70 70 70 70 70 71 71 71
79 75 77 76 73 68 69 69 68 69 69 68 64 62 63 69 71 73 73 73 73 73 73 71 72 73 73 73 73 73 72 72 71 71 71 71 70 70 70 70 70 70 70
79 77 73 75 74 68 65 65 65 65 64 64 62 60 60 62 65 67 71 72 71 71 71 71 71 71 72 73 73 73 72 72 71 71 70 70 70 70 70 69 69 69 69
78 76 73 72 72 68 65 65 63 61 60 63 60 58 58 61 63 63 66 69 69 71 71 70 72 70 71 72 72 73 73 72 71 70 70 70 69 69 69 69 68 68 68
73 75 71 71 70 68 67 64 62 59 59 62 58 57 53 57 60 61 63 65 68 70 71 71 71 72 70 71 69 69 70 71 71 70 70 69 69 68 68 68 68 68 67
74 73 74 70 69 68 65 62 62 59 57 59 60 58 54 53 56 59 62 63 64 68 70 73 72 71 68 68 69 67 68 70 70 70 69 69 69 68 67 67 67 67 66
76 70 70 70 68 66 65 62 62 61 60 58 59 59 60 60 53 52 59 63 64 66 70 71 71 74 75 72 67 66 67 67 68 69 69 68 68 68 67 66 66 66 65
75 71 69 70 69 67 67 66 64 62 61 59 59 56 56 58 61 57 53 58 62 65 70 72 71 70 71 71 69 65 66 66 66 67 67 67 67 67 66 66 65 65 64
67 68 70 69 70 69 65 66 65 62 61 61 59 57 56 56 58 58 60 60 60 64 68 69 69 67 67 67 67 64 65 65 65 65 65 65 66 65 65 64 64 64 63
64 64 69 70 68 70 69 65 63 63 61 60 60 57 58 58 60 58 58 62 61 64 64 65 65 65 68 67 67 64 63 64 64 64 64 64 63 63 62 62 62 62 62
68 68 66 67 67 71 68 66 66 64 63 61 60 58 57 57 58 57 56 56 57 59 60 62 67 68 68 68 64 63 65 63 63 63 64 62 61 61 61 60 60 60 60
69 68 68 68 67 66 69 67 63 62 62 62 60 59 58 56 56 56 57 57 57 54 56 64 62 67 66 66 64 65 66 62 63 63 61 60 60 60 59 59 58 58 58
65 67 66 65 64 67 69 67 63 63 61 60 60 58 56 54 55 56 57 59 61 61 58 63 63 63 65 66 61 64 61 61 61 60 59 59 59 58 58 57 57 57 57
64 63 64 64 64 63 65 64 62 61 60 60 59 57 55 54 54 55 55 55 54 58 54 56 61 62 60 60 56 55 55 54 55 57 57 57 57 57 57 56 56 56 56
60 59 61 61 63 63 65 64 60 59 57 56 56 56 54 55 55 54 53 53 52 53 53 52 49 49 50 49 50 50 51 52 50 54 54 57 58 58 56 56 56 55 55
58 58 58 57 60 62 61 62 60 57 56 55 54 53 53 54 52 52 52 52 52 52 50 49 44 45 45 45 44 44 45 46 51 52 54 56 55 57 57 55 55 54 53
55 56 56 57 57 56 57 57 55 54 54 54 54 54 53 53 52 51 51 50 50 49 49 46 45 43 44 44 44 42 42 45 47 53 51 53 53 54 54 52 54 53 52
56 55 54 54 55 55 55 54 54 53 53 52 52 52 53 54 55 53 50 49 49 47 46 45 43 43 42 42 43 45 44 47 50 53 52 53 52 51 51 52 52 51 52
55 55 54 54 54 55 56 55 54 52 52 52 51 52 54 55 55 55 54 53 51 48 46 46 47 49 50 50 50 50 50 49 47 51 49 49 50 49 51 51 49 50 50
54 53 54 54 53 54 56 55 53 51 50 49 49 49 50 52 53 54 56 55 55 56 56 56 51 51 49 49 49 49 49 47 47 47 47 45 50 46 50 53 49 49 50
51 51 52 53 53 53 54 54 52 49 48 48 49 50 50 54 57 56 55 54 53 52 54 55 51 50 49 50 49 48 47 47 48 48 47 41 47 45 49 49 49 49 49
52 51 51 51 52 52 54 54 53 53 53 54 57 57 56 53 55 57 53 51 50 49 52 51 51 50 50 50 49 49 45 44 43 44 46 43 44 43 45 47 48 48 47
53 55 52 52 53 53 55 56 56 57 55 54 54 53 53 52 53 55 54 52 49 50 51 50 50 50 51 49 50 49 47 42 41 41 44 41 41 41 39 45 45 46 47

GFSMA_sfc_temp_168.txt.gz
Temp
69 69 69 69 70 69 70 69 69 67 70 76 77 77 78 75 70 69 67 74 75 76 76 76 75 75 76 74 74 74 73 73 73 73 73 73 73 72 72 72 73 73 73
70 70 70 71 70 69 68 68 68 66 67 73 70 70 75 74 69 68 68 68 73 74 76 75 76 75 75 74 74 73 73 73 73 72 72 72 72 72 72 72 72 72 72
72 72 73 72 70 69 69 71 68 66 68 71 66 65 72 74 72 69 71 68 68 72 74 75 74 74 73 74 73 72 72 72 71 71 72 71 71 71 71 71 71 71 71
72 70 69 71 68 68 67 67 66 64 66 66 60 62 64 70 70 70 69 70 65 68 71 73 74 74 73 73 73 72 72 71 71 71 71 70 71 71 71 70 70 70 70
72 68 67 67 67 66 66 66 66 65 62 61 61 61 62 65 67 68 66 66 66 65 65 71 72 73 73 73 73 73 72 72 72 71 71 71 70 70 70 70 70 70 69
71 68 66 67 68 65 65 65 64 63 62 60 60 60 61 62 63 63 63 65 65 66 65 64 64 66 72 73 73 73 73 72 71 71 70 70 70 70 69 69 69 69 69
70 68 65 65 67 64 64 64 63 61 60 60 58 58 59 60 61 60 62 62 64 64 66 67 63 63 66 72 72 73 73 72 71 70 70 70 69 69 69 69 68 68 68
68 68 65 68 66 64 64 62 62 59 59 60 56 56 54 56 58 60 61 62 62 64 65 69 65 65 66 65 67 70 70 71 71 70 70 69 69 69 68 68 68 68 67
67 66 65 67 65 63 61 62 61 59 57 59 59 57 52 51 55 58 59 60 60 60 61 65 67 66 65 64 65 65 68 70 70 70 70 69 69 68 68 67 67 67 66
66 66 65 69 66 64 61 62 61 60 59 57 58 58 58 58 52 52 56 58 60 60 60 61 64 66 65 64 64 64 67 67 68 69 69 69 68 68 67 66 66 66 65
65 64 64 67 64 64 63 62 61 60 58 58 59 55 56 56 56 53 52 54 58 59 60 63 65 66 64 64 60 62 66 66 66 67 67 67 67 67 67 66 65 65 64
61 63 65 64 65 64 62 62 62 61 59 59 59 57 56 54 53 54 53 53 54 56 58 62 62 63 62 62 65 64 65 65 65 66 66 66 66 66 65 64 64 64 63
62 63 64 64 65 64 61 62 61 60 60 59 59 57 57 57 58 57 55 55 54 55 57 59 58 59 62 61 60 62 64 65 64 65 65 65 64 63 63 63 62 62 62
63 64 63 64 63 63 62 61 62 61 61 60 60 58 57 57 57 57 56 55 52 53 54 55 58 59 60 60 61 63 60 64 64 64 64 63 62 62 61 61 61 60 60
64 64 64 64 63 64 62 61 60 60 60 60 59 58 58 56 56 57 56 56 54 49 50 55 55 58 58 57 59 58 58 63 63 63 62 61 61 61 60 60 59 58 58
61 63 63 63 63 63 63 61 59 60 60 60 59 58 57 55 55 55 56 56 56 54 51 56 54 56 58 58 57 54 58 61 62 61 60 59 59 59 59 58 58 57 57
61 61 61 61 61 61 62 61 60 60 60 59 58 58 55 55 55 55 55 54 53 53 50 52 54 53 51 51 49 50 52 51 54 59 57 57 57 58 58 57 56 56 56
59 56 58 59 61 61 61 61 60 60 59 58 58 57 54 55 54 55 54 52 52 52 51 48 47 46 46 46 46 46 49 51 49 54 53 53 55 57 57 56 56 55 56
56 55 57 57 58 60 60 60 59 57 56 55 55 55 54 54 53 53 53 51 51 51 50 48 44 45 44 45 44 44 45 45 48 50 52 53 55 56 57 56 55 54 53
55 55 55 56 57 57 56 56 55 54 54 54 54 53 53 54 53 52 51 50 50 49 48 46 44 43 44 43 44 43 42 43 45 52 52 53 54 54 55 53 54 54 52
54 55 54 54 54 55 55 54 54 53 52 52 52 53 53 55 56 54 51 49 48 47 46 45 43 43 42 42 43 43 43 43 44 45 45 46 44 44 46 52 51 52 52
54 54 54 54 54 55 56 55 53 52 52 51 50 51 53 55 56 56 55 54 52 48 46 45 44 42 40 40 41 40 40 41 42 43 40 40 42 41 43 44 51 50 50
53 53 53 54 53 54 56 55 54 51 50 49 49 49 50 53 54 54 56 55 55 56 53 43 40 38 37 39 39 38 37 37 36 39 39 36 39 39 42 50 51 50 50
51 51 52 52 52 54 55 54 53 50 49 49 50 51 51 51 51 49 46 44 45 45 45 47 41 39 39 39 39 40 38 38 38 39 38 33 40 41 41 44 51 50 49
50 50 51 51 51 52 54 54 54 52 50 51 51 48 47 46 56 53 45 43 41 43 52 52 51 51 52 52 48 40 36 35 33 35 38 34 35 35 36 36 44 48 48
50 51 51 52 53 52 55 57 56 53 47 46 46 46 53 49 56 54 44 41 39 39 42 42 42 45 46 47 49 39 37 33 33 31 36 33 36 38 31 35 42 43 42

GFSMA_sfc_temp_171.txt.gz
Temp
68 67 67 68 67 68 68 67 67 67 66 69 72 74 73 66 65 66 66 73 75 75 75 75 75 74 75 74 74 73 73 73 72 72 72 72 72 72 72 72 72 73 73
68 69 68 68 67 68 67 67 66 66 65 69 70 74 72 67 65 65 66 68 73 74 75 75 74 74 73 73 74 72 72 73 73 72 72 72 72 71 72 72 71 72 72
69 68 67 67 67 67 68 67 66 65 66 68 64 67 71 65 65 65 69 66 68 72 74 74 74 74 73 73 73 73 72 71 72 72 72 72 71 71 71 71 71 71 71
69 66 67 66 66 66 66 66 64 62 62 63 62 62 65 68 65 67 67 65 64 67 72 73 73 73 73 73 72 72 73 72 71 71 71 71 71 70 70 70 70 70 70
69 66 65 65 65 65 65 64 62 61 59 59 61 61 62 64 65 66 63 65 66 65 65 71 71 72 73 73 73 73 72 72 71 71 71 70 71 70 70 69 69 69 70
68 65 64 64 64 63 62 62 63 62 60 59 60 59 60 61 61 61 63 65 64 64 64 65 65 67 72 73 72 73 72 72 71 71 71 71 70 69 69 69 69 69 69
67 65 63 63 64 62 61 64 62 61 59 60 58 58 59 60 60 61 61 63 62 63 64 64 63 64 66 71 72 72 73 72 71 70 70 70 69 69 69 68 68 68 68
66 67 63 62 62 61 61 62 62 59 59 60 57 56 54 57 58 60 60 62 61 62 63 65 63 65 64 65 67 70 70 71 71 70 70 69 69 69 68 68 68 67 67
65 65 63 63 62 61 61 62 61 60 58 59 60 56 52 52 55 57 59 59 59 60 61 61 62 62 61 62 65 65 68 70 70 70 69 69 69 68 68 68 67 66 66
64 64 63 65 65 63 61 61 61 60 59 58 58 58 55 57 53 51 57 58 59 60 60 60 61 62 62 64 64 64 67 67 68 69 69 69 68 68 67 66 66 65 65
65 63 63 64 65 63 62 61 60 59 60 58 58 56 56 55 54 54 51 54 57 58 59 59 59 59 60 61 59 62 66 66 67 68 68 68 68 67 66 66 65 65 64
61 61 63 61 61 63 62 62 61 60 59 58 58 56 55 54 53 53 52 53 54 55 58 58 58 59 60 61 64 64 65 65 66 66 66 66 67 66 65 65 64 64 64
58 62 61 60 61 64 62 60 61 61 58 58 59 57 57 57 57 55 54 53 53 54 55 56 57 58 61 59 61 62 64 65 65 65 65 65 65 64 64 63 63 63 62
59 63 62 62 64 61 59 59 59 60 60 59 59 57 57 57 57 57 55 53 51 52 53 54 56 57 56 58 59 63 59 64 64 64 64 64 63 62 62 62 61 61 60
63 63 63 63 63 62 60 59 58 58 58 57 58 57 58 56 57 57 57 56 53 49 50 53 54 57 56 56 60 58 58 62 64 63 63 62 62 61 61 61 60 59 59
61 62 62 62 63 63 62 59 58 58 58 58 58 58 57 56 56 56 56 56 56 53 50 53 52 54 55 56 56 54 57 61 63 63 61 60 60 60 59 59 58 58 57
60 61 60 61 61 61 62 60 59 59 59 59 58 57 56 56 55 55 56 55 53 53 49 49 50 50 49 50 50 51 51 51 55 59 57 56 55 54 55 56 56 56 57
57 57 58 59 60 61 61 60 58 59 59 58 57 57 55 55 55 56 54 53 52 52 51 47 47 46 45 46 46 46 48 51 50 54 53 53 52 54 55 56 56 56 56
55 55 56 56 58 59 60 59 58 58 57 56 56 56 54 54 53 53 53 52 51 51 50 48 44 45 44 45 45 45 45 45 48 50 51 52 54 54 56 56 55 54 54
55 55 56 56 57 57 57 56 55 54 54 53 53 54 54 54 53 53 52 50 50 49 48 46 44 43 44 44 44 43 43 44 45 51 51 54 54 55 55 55 54 54 53
54 55 54 54 55 55 55 54 54 53 52 52 52 53 53 55 56 54 51 49 49 47 46 45 43 43 42 42 43 43 41 40 40 41 41 42 42 42 44 50 51 52 52
54 54 54 54 54 55 56 55 54 52 52 51 50 51 54 56 56 56 55 54 51 48 46 45 44 42 36 37 37 37 37 37 36 39 38 39 39 39 40 41 52 51 51
53 53 53 54 53 54 56 55 54 51 50 50 50 50 51 53 52 51 53 54 54 54 49 40 36 35 34 35 36 35 35 35 34 37 37 34 36 37 40 48 51 51 50
51 51 52 53 53 54 55 55 53 51 50 50 50 51 50 47 47 45 44 43 42 42 43 45 38 36 37 37 37 37 35 35 35 37 35 31 34 34 41 42 50 50 49
50 50 51 51 52 52 55 55 53 50 49 49 49 48 46 45 52 50 43 41 40 42 52 52 52 52 52 50 45 39 34 33 31 32 34 32 32 32 32 37 41 49 48
50 51 51 52 53 53 55 54 52 47 44 44 44 45 54 48 53 50 41 39 37 38 40 40 40 42 42 45 47 37 35 32 30 30 34 32 32 36 30 32 36 38 36

GFSMA_sfc_temp_174.txt.gz
Temp
67 67 67 67 67 68 67 67 66 66 65 66 71 71 64 64 63 65 66 73 75 75 76 75 74 74 73 73 73 72 72 72 72 73 72 72 72 72 73 72 72 72 73
68 67 66 67 67 67 67 67 66 66 64 65 70 71 69 63 62 64 66 68 73 75 75 75 74 74 73 72 72 72 72 72 72 72 71 71 71 72 72 72 72 72 72
68 68 67 66 66 66 66 66 65 64 62 65 65 69 69 66 63 63 67 65 68 72 74 74 74 74 73 73 72 71 71 72 71 71 71 71 71 72 71 71 71 71 71
68 66 65 65 65 65 65 64 63 61 59 59 60 64 66 64 65 63 66 67 64 66 71 72 73 74 73 72 72 71 71 71 72 72 71 71 71 70 70 70 70 71 71
68 65 64 64 64 64 63 63 61 60 58 58 60 61 62 64 64 65 63 62 64 65 66 71 71 72 73 73 73 73 72 72 71 71 71 71 70 70 70 70 70 70 70
67 64 63 63 63 62 62 61 60 59 57 59 60 60 60 61 60 61 62 63 63 64 64 66 66 67 72 72 72 72 72 72 71 71 71 70 70 70 69 69 69 69 69
66 63 63 63 62 62 61 61 59 58 59 60 59 58 59 60 60 61 61 62 62 63 64 64 64 64 66 71 72 72 72 72 71 70 70 70 69 69 69 68 68 68 68
64 63 62 62 61 60 60 60 59 59 59 59 57 56 54 57 59 60 61 62 61 62 63 64 63 63 63 65 66 70 70 71 71 70 70 69 69 69 68 68 67 67 67
64 64 65 62 61 60 59 60 61 60 58 58 59 57 53 53 55 58 59 60 60 60 60 61 62 62 62 61 66 66 68 70 70 70 69 69 68 68 68 68 67 66 66
63 63 65 62 60 60 59 62 61 60 59 57 55 58 57 56 52 52 57 58 59 59 59 60 60 61 60 60 63 64 67 68 69 69 69 69 68 67 67 66 66 65 65
62 62 62 64 62 61 62 61 60 59 60 59 57 55 56 54 53 53 52 54 57 58 59 59 58 59 60 60 60 63 66 66 67 68 68 68 68 67 66 66 65 65 64
62 63 63 60 60 60 60 61 61 60 59 59 58 56 54 52 53 51 51 52 53 55 58 57 57 58 58 58 60 64 65 66 66 66 67 67 67 67 66 65 64 64 64
57 59 60 59 59 62 63 62 60 59 59 59 58 57 58 56 57 55 54 52 53 55 56 56 57 56 59 57 59 62 64 65 65 65 65 65 66 65 64 64 63 63 62
58 60 59 59 62 63 60 58 61 60 59 58 58 57 57 57 58 56 55 53 51 52 53 54 56 57 56 57 59 63 60 64 64 64 64 64 64 63 63 62 62 61 61
59 59 60 60 63 61 58 58 59 59 59 59 58 55 55 56 57 57 56 55 53 49 50 53 53 55 55 55 58 57 57 62 64 63 63 63 62 62 62 61 60 60 59
61 62 62 62 62 62 60 58 57 57 57 56 56 55 56 56 56 56 56 56 55 53 49 51 49 51 53 54 55 53 55 60 63 62 61 60 61 60 60 59 57 57 57
60 60 60 60 61 61 61 59 57 58 58 58 58 57 56 55 55 56 56 55 54 53 49 48 49 49 47 48 48 49 50 50 54 58 56 55 54 54 54 54 55 56 57
58 58 59 59 60 61 61 60 58 59 59 58 58 57 56 56 55 55 56 53 52 52 50 46 47 45 45 46 46 46 48 50 49 54 54 53 52 52 53 54 55 56 56
56 56 57 57 58 59 59 60 58 58 57 57 57 56 55 55 54 53 53 52 51 51 50 48 44 45 45 45 45 45 46 46 48 50 52 52 52 52 54 55 55 54 54
55 55 56 56 57 57 57 56 55 54 54 54 54 54 54 54 53 52 52 51 50 49 48 46 44 43 44 44 44 44 43 44 45 50 51 53 54 54 55 55 54 54 53
54 55 54 55 56 55 56 54 54 53 53 52 53 53 53 55 56 55 51 50 49 47 46 45 43 43 42 43 41 39 39 37 37 38 39 39 40 40 43 47 51 52 52
54 54 54 54 54 55 56 55 54 52 51 51 51 52 55 56 56 57 56 54 51 48 45 44 43 39 34 34 35 35 35 35 34 37 36 38 37 37 38 40 51 51 51
53 53 53 54 53 54 56 55 54 51 50 50 50 48 48 51 52 51 53 54 53 53 50 39 35 34 33 34 34 34 33 33 32 35 35 33 34 35 38 45 50 51 51
52 52 52 53 53 54 56 55 53 50 49 49 49 48 47 46 46 44 43 42 41 41 42 43 37 35 35 35 36 35 33 33 33 35 33 30 32 32 34 38 50 49 49
51 51 52 52 52 52 55 54 51 48 47 47 49 47 44 43 51 49 42 40 39 41 52 52 51 51 51 50 44 36 32 32 30 31 33 31 31 31 31 33 41 47 46
50 51 51 52 53 50 53 53 49 47 44 44 43 45 51 47 51 48 40 39 37 36 38 38 37 38 40 43 45 35 33 31 30 29 33 32 31 31 29 31 33 34 34